Weather History for Platteville, WI

Change the Weather History Date:

Sunday, March 2, 2014

  Actual Average (KDBQ) Record (KDBQ)
Temperature  
Mean Temperature 0 °F 29 °F  
Max Temperature 5 °F 37 °F 66 °F (1923)
Min Temperature -6 °F 21 °F -12 °F (1890)
Degree Days  
Heating Degree Days 66 36  
Month to date heating degree days 72  
Since 1 July heating degree days 5465  
Cooling Degree Days 0 0  
Month to date cooling degree days 0  
Year to date cooling degree days 0  
Moisture  
Dew Point -16 °F    
Average Humidity 48    
Maximum Humidity 62    
Minimum Humidity 34    
Precipitation  
Precipitation 0.00 in 0.06 in 0.93 in (1970)
Month to date precipitation 0.13  
Year to date precipitation 2.74  
Snow  
Snow 0.00 in 0.20 in - ()
Month to date snowfall 0.5  
Since 1 July snowfall 34.1  
Snow Depth -    
Sea Level Pressure  
Sea Level Pressure 30.42 in    
Wind  
Wind Speed 12 mph (NW)    
Max Wind Speed 16 mph    
Max Gust Speed 20 mph    
Visibility 10 miles    
Events      
T = Trace of Precipitation, MM = Missing Value Source: NWS Daily Summary

Daily Weather History Graph

Daily Weather History Graph

Search for Another Location

Airport:

Trip Planner

Search our weather history database for the weather conditions in past years. The results will help you decide how hot, cold, wet, or windy it might be!

Date:

Astronomy

Mar. 02, 2014 Rise Set
Actual Time 6:35 AM CST 5:52 PM CST
Civil Twilight 6:07 AM CST 6:20 PM CST
Nautical Twilight 5:34 AM CST 6:53 PM CST
Astronomical Twilight 5:02 AM CST 7:26 PM CST
Moon 7:04 AM CST (3/2) 7:52 PM CST (3/2)
Length of Visible Light 12h 13m
Length of Day
11h 16m
Waxing Crescent, 3% of the Moon is Illuminated
Mar 2
Waxing Crescent
Mar 8
First Quarter
Mar 16
Full
Mar 23
Last Quarter
Mar 30
New

Hourly Weather History & Observations

Time (CST) Temp. Windchill Dew Point Humidity Pressure Visibility Wind Dir Wind Speed Gust Speed Precip Events Conditions
12:15 AM 3.9 °F -13.0 °F -6.3 °F 62% 30.38 in 10.0 mi NW 12.7 mph - N/A   Overcast
12:35 AM 3.6 °F -12.6 °F -6.9 °F 62% 30.39 in 10.0 mi NNW 11.5 mph - N/A   Overcast
12:55 AM 3.4 °F -13.6 °F -7.4 °F 61% 30.39 in 10.0 mi NNW 12.7 mph - N/A   Overcast
1:15 AM 3.2 °F -13.1 °F -7.8 °F 60% 30.39 in 10.0 mi NNW 11.5 mph - N/A   Overcast
1:35 AM 3.0 °F -14.1 °F -8.3 °F 59% 30.39 in 10.0 mi NNW 12.7 mph - N/A   Overcast
1:55 AM 2.7 °F -16.0 °F -8.5 °F 60% 30.38 in 10.0 mi NNW 15.0 mph - N/A   Overcast
2:15 AM 2.3 °F -15.0 °F -8.9 °F 60% 30.38 in 10.0 mi NNW 12.7 mph - N/A   Overcast
2:35 AM 1.9 °F -16.2 °F -9.4 °F 59% 30.38 in 10.0 mi NNW 13.8 mph - N/A   Overcast
2:55 AM 1.2 °F -17.1 °F -10.8 °F 57% 30.39 in 10.0 mi NNW 13.8 mph - N/A   Overcast
3:15 AM 1.0 °F -18.0 °F -9.9 °F 60% 30.38 in 10.0 mi North 15.0 mph - N/A   Overcast
3:30 AM 0.9 °F -16.0 °F -10.8 °F 58% 30.38 in 10.0 mi North 11.5 mph - N/A   Overcast
3:55 AM 0.5 °F -16.5 °F -11.2 °F 58% 30.39 in 10.0 mi NNW 11.5 mph - N/A   Overcast
4:15 AM 0.5 °F -18.7 °F -11.7 °F 56% 30.40 in 10.0 mi NNW 15.0 mph - N/A   Overcast
4:35 AM -0.0 °F -20.1 °F -12.5 °F 56% 30.40 in 10.0 mi North 16.1 mph 19.6 mph N/A   Overcast
4:55 AM -0.2 °F -19.6 °F -11.9 °F 58% 30.41 in 10.0 mi North 15.0 mph - N/A   Overcast
5:15 AM -0.4 °F -19.9 °F -12.6 °F 56% 30.40 in 10.0 mi NNW 15.0 mph - N/A   Overcast
5:35 AM -0.9 °F -18.3 °F -13.5 °F 55% 30.39 in 10.0 mi NNW 11.5 mph - N/A   Overcast
5:55 AM -1.1 °F -19.3 °F -13.9 °F 55% 30.41 in 10.0 mi NNW 12.7 mph - N/A   Overcast
6:15 AM -2.2 °F -19.9 °F -15.5 °F 53% 30.42 in 10.0 mi NNW 11.5 mph - N/A   Scattered Clouds
6:35 AM -3.1 °F -20.1 °F -16.6 °F 53% 30.42 in 10.0 mi NNW 10.4 mph - N/A   Clear
6:55 AM -3.5 °F -21.4 °F -16.8 °F 53% 30.43 in 10.0 mi NNW 11.5 mph - N/A   Clear
7:15 AM -3.5 °F -19.5 °F -17.3 °F 52% 30.43 in 10.0 mi NNW 9.2 mph - N/A   Clear
7:35 AM -3.5 °F -20.5 °F -17.5 °F 51% 30.43 in 10.0 mi NNW 10.4 mph - N/A   Clear
7:55 AM -3.3 °F -20.3 °F -17.7 °F 50% 30.44 in 10.0 mi NNW 10.4 mph - N/A   Clear
8:15 AM -2.9 °F -21.6 °F -17.3 °F 50% 30.46 in 10.0 mi NNW 12.7 mph - N/A   Clear
8:35 AM -2.7 °F -20.5 °F -17.9 °F 49% 30.45 in 10.0 mi NNW 11.5 mph - N/A   Clear
8:55 AM -2.4 °F -20.1 °F -17.7 °F 48% 30.46 in 10.0 mi NNW 11.5 mph - N/A   Clear
9:15 AM -2.2 °F -20.7 °F -17.5 °F 48% 30.46 in 10.0 mi NNW 12.7 mph - N/A   Clear
9:35 AM -1.5 °F -19.0 °F -17.0 °F 48% 30.46 in 10.0 mi NNW 11.5 mph - N/A   Clear
9:55 AM -1.5 °F -18.1 °F -17.9 °F 46% 30.45 in 10.0 mi NNW 10.4 mph - N/A   Clear
10:15 AM -0.8 °F -17.2 °F -17.0 °F 46% 30.46 in 10.0 mi NNW 10.4 mph - N/A   Clear
10:35 AM -0.6 °F -17.8 °F -17.9 °F 44% 30.46 in 10.0 mi NNW 11.5 mph - N/A   Clear
10:55 AM 0.3 °F -18.3 °F -17.7 °F 43% 30.46 in 10.0 mi NW 13.8 mph - N/A   Clear
11:35 AM 1.0 °F -16.6 °F -17.1 °F 42% 30.45 in 10.0 mi NNW 12.7 mph - N/A   Clear
11:55 AM 1.2 °F -14.7 °F -18.0 °F 40% 30.46 in 10.0 mi NW 10.4 mph - N/A   Clear
12:15 PM 1.8 °F -14.9 °F -17.3 °F 41% 30.45 in 10.0 mi NNW 11.5 mph - N/A   Clear
12:30 PM 2.3 °F -14.2 °F -16.6 °F 41% 30.43 in 10.0 mi NW 11.5 mph 17.3 mph N/A   Clear
12:55 PM 2.7 °F -14.5 °F -17.1 °F 39% 30.41 in 10.0 mi NW 12.7 mph - N/A   Clear
1:15 PM 3.6 °F -11.8 °F -15.9 °F 40% 30.40 in 10.0 mi NNW 10.4 mph - N/A   Clear
1:35 PM 3.9 °F -13.7 °F -15.0 °F 41% 30.41 in 10.0 mi NW 13.8 mph - N/A   Clear
1:55 PM 3.7 °F -13.2 °F -15.7 °F 40% 30.41 in 10.0 mi NW 12.7 mph 18.4 mph N/A   Clear
2:15 PM 4.3 °F -11.7 °F -15.2 °F 40% 30.40 in 10.0 mi NW 11.5 mph - N/A   Clear
2:35 PM 5.0 °F -10.0 °F -14.8 °F 40% 30.40 in 10.0 mi NW 10.4 mph - N/A   Clear
2:55 PM 5.0 °F -10.8 °F -15.5 °F 38% 30.39 in 10.0 mi NW 11.5 mph - N/A   Clear
3:15 PM 5.5 °F -9.3 °F -15.5 °F 37% 30.40 in 10.0 mi NW 10.4 mph - N/A   Clear
3:35 PM 5.0 °F -9.1 °F -16.2 °F 37% 30.40 in 10.0 mi NW 9.2 mph - N/A   Clear
3:55 PM 5.0 °F -10.8 °F -16.6 °F 36% 30.42 in 10.0 mi WNW 11.5 mph - N/A   Clear
4:15 PM 5.0 °F -9.1 °F -16.8 °F 36% 30.42 in 10.0 mi NW 9.2 mph - N/A   Clear
4:35 PM 5.4 °F -9.6 °F -17.5 °F 34% 30.42 in 10.0 mi NW 10.4 mph - N/A   Clear
4:55 PM 4.5 °F -8.7 °F -17.3 °F 36% 30.42 in 10.0 mi WNW 8.1 mph - N/A   Clear
5:15 PM 3.7 °F -8.4 °F -17.5 °F 37% 30.42 in 10.0 mi NW 6.9 mph - N/A   Clear
5:35 PM 3.0 °F -10.5 °F -18.4 °F 36% 30.41 in 10.0 mi NW 8.1 mph - N/A   Clear
5:55 PM 2.3 °F -10.2 °F -18.6 °F 37% 30.42 in 10.0 mi WNW 6.9 mph - N/A   Clear
6:15 PM 0.3 °F -11.2 °F -17.7 °F 43% 30.42 in 10.0 mi WNW 5.8 mph - N/A   Clear
6:35 PM 0.1 °F -15.1 °F -17.5 °F 43% 30.41 in 10.0 mi NW 9.2 mph - N/A   Clear
6:55 PM -0.0 °F -14.2 °F -17.9 °F 43% 30.41 in 10.0 mi NW 8.1 mph - N/A   Clear
7:15 PM -0.4 °F -16.7 °F -18.0 °F 43% 30.42 in 10.0 mi NW 10.4 mph - N/A   Clear
7:35 PM 0.1 °F -16.0 °F -18.4 °F 41% 30.41 in 10.0 mi NNW 10.4 mph - N/A   Clear
7:55 PM -0.4 °F -16.7 °F -18.4 °F 43% 30.42 in 10.0 mi NW 10.4 mph - N/A   Clear
8:15 PM -2.2 °F -16.8 °F -18.4 °F 46% 30.42 in 10.0 mi NW 8.1 mph - N/A   Clear
8:35 PM -2.6 °F -19.4 °F -18.4 °F 47% 30.42 in 10.0 mi NW 10.4 mph - N/A   Clear
8:55 PM -2.7 °F -20.5 °F -18.4 °F 47% 30.43 in 10.0 mi NW 11.5 mph - N/A   Clear
9:15 PM -3.1 °F -21.0 °F -18.4 °F 48% 30.43 in 10.0 mi NW 11.5 mph - N/A   Clear
9:35 PM -4.0 °F -21.2 °F -18.6 °F 50% 30.43 in 10.0 mi NW 10.4 mph - N/A   Clear
9:55 PM -4.5 °F -18.4 °F -18.8 °F 51% 30.46 in 10.0 mi WNW 6.9 mph - N/A   Clear
10:15 PM -5.8 °F -14.5 °F -19.3 °F 52% 30.46 in 10.0 mi WNW 3.5 mph - N/A   Clear
10:35 PM -5.3 °F -17.8 °F -19.5 °F 50% 30.46 in 10.0 mi WNW 5.8 mph - N/A   Clear
10:55 PM -6.2 °F -22.8 °F -19.7 °F 52% 30.46 in 10.0 mi NW 9.2 mph - N/A   Clear
11:15 PM -5.4 °F -19.5 °F -19.3 °F 51% 30.46 in 10.0 mi NW 6.9 mph - N/A   Clear
11:35 PM -5.4 °F -19.5 °F -19.5 °F 51% 30.47 in 10.0 mi NW 6.9 mph - N/A   Clear
11:55 PM -5.3 °F -21.7 °F -19.3 °F 51% 30.47 in 10.0 mi NNW 9.2 mph - N/A   Clear